Tracking 34719 objects as of 12-Jul-2026
HD Live streaming from Space Station
objects crossing your sky now

STARLINK-11491

Track STARLINK-11491 now!
10-day predictions
STARLINK-11491 is classified as:


NORAD ID: 62269
Int'l Code: 2024-237C
Perigee: 362.4 km
Apogee: 364.9 km
Inclination: 43.0 °
Period: 91.7 minutes
Semi major axis: 6734 km
RCS: Unknown
Launch date: December 8, 2024
Source: United States (US)
Launch site: AIR FORCE EASTERN TEST RANGE (AFETR)
Your satellite tracking list
Your tracking list is empty




NASA's NSSDC Master Catalog

Two Line Element Set (TLE):
1 62269U 24237C   26193.56272142  .00008322  00000-0  68264-4 0  9998
2 62269  43.0007  23.7311 0001850 251.2343 108.8324 15.70847976 92698
Source of the keplerian elements: AFSPC